Weather in Pervomayskoye

Russia / Ulyanovsk Oblast     54°01′07″N   45°54′46″E
temp.,
°C
wind,
m/s
gust,
m/s
humid.,
%
clouds,
%
prec.,
mm/h
press.,
hPa
HPBL,
m
22 january, sat
sat2201:00−8sse61593100 0.3 1013603
04:00−8sse51393100 1.3 1013533
07:00−8sse41194100 0.4 1013436
10:00−7se41095100 1.6 1014472
13:00−5sse4995100 0.6 1015471
16:00−4se3796100 1.4 1015418
19:00−3sse3894100 0.5 1016360
22:00−4s259798 1.0 1018197
23 january, sun
sun2301:00−11s2199100 0.1 102110
04:00−12s1199100 0.1 102310
07:00−12se1199100 0.1 102510
10:00−9e1198100 0.1 102629
13:00−4ese2393100 0.0 1028326
16:00−3e2497100 0.5 1029306
19:00−5e2597100 0.3 1031166
22:00−5e2697100 0.9 1032296
24 january, mon
mon2401:00−6ese2597100 0.8 1034235
04:00−7ese2597100 1.2 1035187
07:00−7e2596100 0.1 1035151
10:00−12e2196100 0.1 103723
13:00−7e248279 0.0 1037218
16:00−6e2490100 0.0 1037125
19:00−11e2495100 0.0 103765
22:00−15ese119788 0.0 103710
25 january, tue
tue2501:00−19ese119943 0.0 10379
04:00−20ese1110081 0.0 10369
07:00−22sse2110090 0.0 103510
10:00−18sse2396100 0.0 103447
13:00−9s3785100 0.0 1031249
16:00−7s2891100 0.0 1029301
19:00−15sse2299100 0.0 102917
22:00−18sse229983 0.0 102817
26 january, wed
wed2601:00−15sse239879 0.0 102758
04:00−13sse259793 0.1 1026112
07:00−12sse2397100 0.2 102588
10:00−9s2496100 0.4 1024150
13:00−7s2495100 1.2 1023269
16:00−5ssw2494100 1.7 1022301
19:00−7s2597100 0.1 1023121
22:00−9s259796 0.1 102393